sat.trackr.live / text

‹ back to catalog

CONNECTA IOT-2

NORAD 60522 · 2024-149BG

PAYLOAD ACTIVE UNKNOWN

§ Identity

Operator
Country
TURK
Launch date
2024-08-16
Launch site
AFWTR
Launch vehicle
Mass (kg)
RCS (m²)

External: N2YO · Heavens-Above · Gunter

§ Orbital elements

Epoch: 2026-09-22T17:25:42.464352Z

Period
94.44 min
Inclination
97.3774°
Eccentricity
0.0005943
Mean motion
15.24847987 rev/d
Perigee alt
487.2 km
Apogee alt
495.3 km
Semi-major
6,869.4 km
B*
2.4015e-4
RAAN
342.4044°
Arg perigee
354.5908°
Mean anomaly
5.5265°
Rev number
11,675

§ Raw data

CONNECTA IOT-21 60522U 24149BG  26265.72618593  .00005897  00000+0  24015-3 0  99902 60522  97.3774 342.4044 0005943 354.5908   5.5265 15.24847987116758

JSON: /api/v1/satellites/60522 · /tle

For live sub-satellite position, see the globe view (requires WebGL).

§ Visibility from observer

Set your observer location to see the next 7 days of passes ≥ 10°. The values pass through the URL so the page stays shareable.

No JS? Fill the form by hand. The geolocation button needs JavaScript.

§ Radio — SatNOGS DB

ModeDescriptionDownlinkUplink
GMSK Mode U - GMSK 4k8 AX.25 TLM 401.520 MHz
LoRa Mode U - LoRa (inactive) 869.525 MHz

2 transmitters · refreshed weekly from db.satnogs.org